Wind_Speed
11 9 6 6 5 5 8 8 10 7 10 16 17 15 14 14 14 13 14 13 13 13 12 12 9 8 7 8 10 12 15 13 15 17 20 22 23 24
8 11 12 11 11 11 13 14 17 17 12 19 18 18 18 17 17 17 19 20 20 18 16 17 16 15 11 10 11 13 15 18 17 17 15 17 19 21
11 13 14 14 15 16 16 17 19 19 14 20 21 20 21 20 21 21 21 22 22 21 20 22 24 23 21 19 18 18 16 18 20 20 20 18 18 17
15 16 17 17 17 17 17 18 18 19 20 19 22 21 22 22 22 23 24 23 23 22 20 24 23 23 26 28 25 22 23 20 21 22 22 23 21 20
18 17 16 15 16 16 16 18 19 20 21 22 23 23 23 23 25 25 26 26 26 27 26 25 26 24 23 24 25 26 26 25 23 22 24 24 24 23
15 14 15 16 18 18 19 20 22 23 23 23 24 25 24 24 26 26 26 26 27 27 27 28 27 25 27 25 24 27 28 29 28 26 23 25 27 27
18 18 18 18 18 21 23 23 23 24 24 23 23 23 22 22 23 24 26 25 26 25 26 27 26 26 29 33 34 33 33 32 30 31 28 27 28 28
22 22 22 22 23 22 21 23 24 25 25 23 22 21 24 22 20 21 21 21 13 23 25 27 24 25 27 27 26 26 26 31 30 28 28 29 28 28
24 23 23 23 22 22 22 20 22 23 25 26 26 26 26 23 22 22 21 21 21 21 21 20 18 18 19 22 23 25 25 27 29 29 29 29 28 26
23 23 24 24 22 18 20 21 21 22 23 24 27 28 27 25 24 24 25 25 24 23 22 16 18 20 19 22 24 24 22 25 23 21 23 25 26 25
23 22 21 21 21 19 20 22 23 24 24 27 30 29 29 29 28 24 22 20 18 24 24 23 20 20 21 22 23 22 21 23 25 24 22 19 16 17
20 20 20 21 22 20 20 19 23 24 23 21 20 21 32 29 29 29 28 24 21 17 22 22 20 18 14 21 23 22 23 27 28 27 27 24 21 17
21 21 19 15 10 13 16 20 22 20 21 21 22 22 21 22 23 24 27 28 25 24 21 19 12 17 18 17 8 8 10 13 16 21 28 28 24 20
21 20 9 16 14 14 14 13 15 17 17 17 16 17 18 19 20 20 22 23 26 28 25 18 16 19 16 14 12 14 13 12 10 13 16 18 22 17
16 13 15 13 12 11 8 11 11 10 11 12 13 14 14 15 16 16 19 20 21 23 23 23 21 21 18 17 12 11 10 11 10 10 13 13 13 11
17 8 10 11 9 9 8 7 7 9 10 11 12 12 13 13 14 14 15 15 18 19 21 22 22 21 21 19 18 17 14 8 10 10 11 11 9 11
11 8 9 10 10 10 10 9 9 11 11 11 11 11 11 10 10 7 8 10 12 12 13 15 19 20 19 18 17 17 15 14 14 13 12 12 12 13
8 9 10 11 12 13 14 13 11 11 12 12 11 10 11 10 11 6 5 8 9 9 10 9 12 14 14 17 20 18 17 15 14 15 16 12 15 14
10 11 11 12 13 14 14 13 13 13 12 11 12 11 12 11 11 9 4 5 6 7 6 6 9 11 7 9 7 12 13 15 12 11 11 11 12 13
11 12 12 13 13 14 14 14 13 13 12 12 11 12 12 11 10 10 10 10 6 3 2 2 4 7 6 5 0 5 4 6 7 9 10 9 10 12
12 12 12 12 13 13 14 14 13 14 14 13 12 12 12 11 9 10 11 8 9 5 3 3 4 3 4 3 2 3 4 4 4 3 1 6 8 8
11 11 11 12 12 13 13 14 14 15 15 14 14 13 12 10 10 10 10 10 9 7 5 4 4 3 2 4 3 3 2 2 4 0 3 0 2 2
11 11 11 11 12 12 13 13 14 14 14 14 14 14 12 11 10 9 9 8 8 7 6 5 3 3 2 2 2 2 3 1 2 1 5 3 1 3
Wind_Direction
329 320 313 289 267 232 220 258 260 282 281 268 262 251 254 254 254 255 251 250 232 258 263 251 248 238 224 232 244 256 260 261 260 265 264 263 267 272
287 292 292 289 277 267 262 260 259 263 272 275 276 273 270 265 260 263 259 256 265 260 253 248 252 254 258 265 268 261 264 260 263 265 274 276 272 270
287 285 285 283 278 276 271 266 265 268 271 277 272 269 266 264 267 267 264 260 257 249 246 243 253 256 262 263 258 267 271 257 259 265 268 275 283 281
291 291 290 289 282 278 275 272 273 274 277 279 275 273 269 267 265 266 266 263 260 256 256 245 248 261 265 265 262 257 257 262 255 259 266 271 277 281
291 289 287 283 279 278 276 277 276 273 271 271 273 271 270 268 269 265 265 265 263 261 261 261 262 261 252 253 259 259 256 252 254 259 262 268 273 275
287 284 284 281 280 280 279 279 277 275 271 268 268 269 265 265 264 266 265 261 261 260 259 259 260 258 249 248 258 258 258 258 257 258 261 263 266 271
289 286 284 284 285 280 280 279 277 273 270 269 266 266 266 265 262 266 269 269 268 264 264 262 257 253 249 253 252 250 255 256 256 259 261 264 261 261
289 288 288 285 282 279 273 269 268 273 274 277 276 271 269 272 269 263 262 262 263 259 258 260 264 264 256 252 250 247 249 246 250 253 258 260 260 255
291 291 290 287 284 279 279 274 264 263 262 264 267 265 268 265 268 268 267 264 263 263 266 265 258 267 265 260 258 253 249 246 254 256 255 256 259 260
290 288 287 285 282 286 282 278 273 269 263 259 254 258 260 262 262 263 264 265 264 261 260 264 262 263 266 268 262 262 256 248 244 246 252 255 256 258
291 288 289 285 282 285 280 279 276 273 270 261 257 258 260 260 256 265 263 256 255 252 251 253 255 258 262 264 261 260 254 251 251 255 254 256 255 257
296 291 282 276 279 277 278 281 286 283 285 283 275 266 250 252 253 247 252 252 252 257 246 252 258 253 256 253 249 249 252 252 250 249 249 248 255 269
299 297 291 291 279 283 290 285 282 292 289 282 275 270 267 260 252 244 240 241 246 250 250 251 253 246 248 261 249 251 248 247 246 244 243 244 247 263
303 297 320 327 314 299 294 291 296 290 281 273 268 265 263 261 257 249 245 245 242 246 251 245 247 254 257 261 257 253 245 245 237 241 231 232 230 245
310 320 323 323 315 307 297 304 301 298 298 289 283 277 273 273 272 264 253 248 249 248 245 248 249 252 257 260 261 264 254 241 222 225 216 213 213 224
327 336 334 330 322 310 321 325 321 326 320 306 302 300 295 283 273 259 251 243 238 244 242 244 243 242 249 253 262 264 260 256 207 210 216 223 226 227
327 342 347 346 345 1 0 351 346 346 340 331 322 318 315 313 307 295 264 253 245 244 234 226 232 233 240 250 263 266 257 250 248 239 208 233 237 239
4 1 356 354 356 1 5 1 355 350 344 340 337 334 331 335 336 302 282 278 268 252 243 222 203 214 227 243 244 261 270 269 261 240 227 243 254 240
17 7 3 360 0 2 359 353 352 352 345 345 344 346 344 339 350 349 312 276 266 270 263 242 232 231 231 231 199 216 250 261 274 247 214 219 237 251
12 5 0 360 1 358 357 352 346 353 359 355 355 354 356 351 353 360 359 349 335 312 292 298 265 270 271 301 129 110 313 268 271 269 253 228 230 240
2 0 359 357 357 355 354 353 351 359 3 1 4 2 359 357 3 5 1 359 340 354 36 35 354 330 311 311 209 165 35 20 233 307 220 219 231 233
358 357 357 356 357 356 356 358 1 4 5 5 5 5 4 360 3 7 13 7 11 5 9 356 354 339 317 293 348 96 144 58 40 96 206 142 10 321
357 357 357 357 357 358 0 3 5 4 5 5 4 2 1 5 4 6 10 8 6 355 350 332 337 352 351 360 12 96 105 108 20 152 57 23 286 282
Height
784 782 778 778 777 774 774 776 775 770 764 756 755 756 759 760 761 762 762 762 762 764 764 764 764 764 764 764 765 765 765 766 766 765 766 767 767 767
780 778 776 773 771 771 770 769 769 766 760 756 753 754 755 755 756 758 758 759 758 758 761 760 760 760 760 761 762 761 761 761 761 761 763 763 762 761
776 773 771 769 768 766 764 763 762 760 755 751 753 752 752 750 751 752 752 752 751 751 753 755 755 755 755 755 756 757 757 757 757 757 757 757 757 755
772 770 767 764 763 762 760 759 758 756 753 749 749 748 746 745 745 746 745 744 744 744 746 747 748 749 749 749 750 750 751 751 752 752 751 750 751 749
769 766 764 762 760 758 757 755 754 752 750 749 745 744 742 741 740 739 739 739 739 739 740 741 742 743 743 743 743 744 745 745 745 746 745 745 744 743
766 764 761 759 757 755 753 752 750 747 746 744 740 738 738 737 735 734 732 732 732 732 733 734 735 735 735 736 737 737 737 738 738 739 739 739 739 737
762 760 757 755 754 753 751 747 745 742 739 736 733 731 730 730 729 728 726 726 725 726 726 725 726 726 727 727 728 729 729 730 731 731 732 733 733 732
756 753 751 750 747 745 744 743 742 739 735 733 731 729 727 727 727 726 726 725 723 724 721 720 722 719 719 719 720 721 721 722 724 725 725 726 727 727
752 749 746 744 742 739 736 735 734 734 733 733 730 728 726 726 726 724 722 721 720 720 718 716 718 716 716 714 714 714 714 715 716 718 719 720 721 721
747 744 741 738 735 734 733 730 728 726 725 724 722 721 720 720 720 719 718 717 716 716 715 712 713 711 712 710 709 709 709 709 711 712 712 713 714 715
742 738 736 733 731 730 728 725 722 719 717 715 714 713 713 714 715 715 712 711 709 708 708 707 707 706 706 704 703 703 703 704 705 706 707 709 709 710
738 734 731 728 725 724 722 719 715 712 710 707 706 704 704 705 705 706 705 704 703 700 701 702 701 701 699 696 695 695 695 695 697 699 700 702 704 704
733 728 724 721 719 718 717 715 711 708 706 704 701 699 697 696 695 695 695 696 696 693 693 695 694 694 693 691 690 690 690 690 690 691 692 694 697 699
729 724 720 717 716 714 712 709 707 704 701 698 695 693 691 689 687 687 687 687 687 687 688 690 690 689 688 687 686 685 685 685 685 685 687 688 690 693
725 721 718 716 713 710 708 706 703 700 697 694 691 688 686 684 682 681 680 680 680 681 682 684 684 685 685 684 682 681 681 681 681 682 682 684 685 688
724 719 717 715 711 709 706 703 701 699 696 692 689 686 683 680 677 675 674 674 675 675 676 677 679 681 681 681 680 678 678 679 678 679 680 681 682 685
723 720 718 715 711 708 705 703 700 697 695 692 688 684 681 677 674 672 671 670 670 669 670 671 673 675 677 677 677 675 674 674 675 676 678 679 679 680
724 722 720 717 713 709 706 703 701 699 696 692 688 684 681 676 673 671 671 669 667 666 666 666 668 670 672 672 673 672 671 671 671 671 673 675 675 675
727 725 722 719 715 712 709 707 703 700 697 693 689 685 682 677 674 671 670 668 667 665 664 664 665 665 664 663 665 667 669 668 668 667 668 671 672 672
730 728 725 722 718 715 713 710 706 702 698 694 690 687 683 680 676 674 671 669 666 664 664 664 664 664 663 662 660 666 666 667 666 666 666 667 668 669
733 730 728 725 722 718 715 711 707 703 699 695 692 689 685 682 679 676 674 672 670 667 665 666 667 665 665 665 664 665 666 665 666 666 665 665 666 666
736 733 730 727 724 721 717 713 708 704 701 697 694 691 688 685 682 679 677 675 673 672 670 669 668 667 666 665 662 665 667 667 666 666 666 666 666 662
738 735 732 729 726 723 720 716 712 708 704 701 697 694 690 687 684 681 679 677 676 674 672 670 668 668 667 666 665 666 668 668 668 667 668 667 666 666